This is the latest recevied weather packets stored in our database for station/object IU5JAE-13. If no packets are shown the sender has not sent any weather packets the latest 10 day(s).
| Time | Temp. | Humidity | Pressure | Rain* | Wind** | Luminosity | Snow |
|---|---|---|---|---|---|---|---|
| 1777891521 | 18.89° C | 45% | 1018.8 hPa | 0 mm | - | 397 W/m² | - |
| 1777890919 | 18.33° C | 44% | 1018.9 hPa | 0 mm | - | 378 W/m² | - |
| 1777890316 | 18.89° C | 41% | 1018.9 hPa | 0 mm | - | 452 W/m² | - |
| 1777889734 | 18.89° C | 39% | 1019 hPa | 0 mm | - | 536 W/m² | - |
| 1777889132 | 19.44° C | 38% | 1019.1 hPa | 0 mm | - | 569 W/m² | - |
| 1777888529 | 18.33° C | 41% | 1019.2 hPa | 0 mm | - | 624 W/m² | - |
| 1777887927 | 18.33° C | 40% | 1019.1 hPa | 0 mm | - | 490 W/m² | - |
| 1777887325 | 18.89° C | 38% | 1019.2 hPa | 0 mm | - | 484 W/m² | - |
| 1777886722 | 18.33° C | 43% | 1019.2 hPa | 0 mm | - | 564 W/m² | - |
| 1777886120 | 18.33° C | 40% | 1019.2 hPa | 0 mm | - | 517 W/m² | - |
| 1777885517 | 18.33° C | 50% | 1019.1 hPa | 0 mm | - | 557 W/m² | - |
| 1777884935 | 17.78° C | 54% | 1019 hPa | 0 mm | - | 502 W/m² | - |
| 1777884333 | 17.78° C | 58% | 1018.9 hPa | 0 mm | - | 444 W/m² | - |
| 1777883730 | 17.78° C | 58% | 1018.8 hPa | 0 mm | - | 433 W/m² | - |
| 1777883128 | 18.33° C | 53% | 1018.8 hPa | 0 mm | - | 448 W/m² | - |
| 1777882525 | 17.78° C | 55% | 1018.8 hPa | 0 mm | - | 420 W/m² | - |
| 1777881923 | 16.67° C | 56% | 1018.8 hPa | 0 mm | - | 348 W/m² | - |
| 1777881320 | 16.11° C | 55% | 1018.8 hPa | 0 mm | - | 320 W/m² | - |
| 1777880718 | 15° C | 54% | 1018.8 hPa | 0 mm | - | 267 W/m² | - |
| 1777880116 | 15° C | 59% | 1018.7 hPa | 0 mm | - | 252 W/m² | - |
| 1777879533 | 15° C | 59% | 1018.8 hPa | 0 mm | - | 278 W/m² | - |
| 1777878931 | 15° C | 60% | 1018.7 hPa | 0 mm | - | 279 W/m² | - |
| 1777878328 | 15° C | 61% | 1018.7 hPa | 0 mm | - | 287 W/m² | - |
| 1777877726 | 15° C | 63% | 1018.7 hPa | 0 mm | - | 222 W/m² | - |
| 1777877124 | 13.89° C | 60% | 1018.8 hPa | 0 mm | - | 203 W/m² | - |
* Rain latest hour (hover to see other rain measurements)
** Current wind speed in m/s (hover to see current wind gust speed)